HJS-7B

Last updated on Fri Oct 17 2025 00:02:05 GMT+0000 (Coordinated Universal Time)

1 65618U 25209B 25288.76777256 .00000061 00000+0 94513-4 0 9998 2 65618 49.9985 213.8608 0001560 265.5095 94.5640 14.24540707 4235
UTC large
Height (km)
Speed (km/s)
/
Latitude / Longitude
Inclination (degrees)
Orbital Period (minutes)
Azimuth
Elevation
Range (km)
Doppler Factor

Next 0 passes for location: London (51.5072 / 0.1276)

Sorry there are no passes over London.
HJS-7B